Weather History for Baker, MT

Change the Weather History Date:

Tuesday, February 19, 2013

  Actual Average Record
Temperature  
Mean Temperature 10 °F -  
Max Temperature 19 °F 4 °F 46 °F (2014)
Min Temperature 0 °F -6 °F -2 °F (2006)
Degree Days  
Heating Degree Days 56    
Moisture  
Dew Point -1 °F    
Average Humidity 68    
Maximum Humidity 80    
Minimum Humidity 49    
Precipitation  
Precipitation 0.00 in - - ()
Sea Level Pressure  
Sea Level Pressure 30.20 in    
Wind  
Wind Speed 16 mph (ESE)    
Max Wind Speed 32 mph    
Max Gust Speed 43 mph    
Visibility 10 miles    
Events      
Averages and records for this station are not official NWS values.
T = Trace of Precipitation, MM = Missing Value Source: NWS Daily Summary

Daily Weather History Graph

Daily Weather History Graph

Search for Another Location

Airport:

Trip Planner

Search our weather history database for the weather conditions in past years. The results will help you decide how hot, cold, wet, or windy it might be!

Date:

Astronomy

Feb. 19, 2013 Rise Set
Actual Time 6:53 AM MST 5:29 PM MST
Civil Twilight 6:22 AM MST 5:59 PM MST
Nautical Twilight 5:47 AM MST 6:34 PM MST
Astronomical Twilight 5:12 AM MST 7:09 PM MST
Moon 11:51 AM MST (2/19) 2:37 AM MST (2/19)
Length of Visible Light 11h 37m
Length of Day
10h 35m
Waxing Gibbous, 68% of the Moon is Illuminated
Feb 19
Waxing Gibbous
Feb 25
Full
Mar 4
Last Quarter
Mar 11
New
Mar 19
First Quarter

Hourly Weather History & Observations

Time (MST) Temp. Windchill Dew Point Humidity Pressure Visibility Wind Dir Wind Speed Gust Speed Precip Events Conditions
12:51 AM 1.0 °F -12.9 °F -5.1 °F 75% 30.33 in 10.0 mi ESE 8.1 mph - N/A   Clear
1:38 AM -0.4 °F -13.4 °F -7.6 °F 72% 30.16 in 10.0 mi SE 6.9 mph - N/A   Partly Cloudy
1:51 AM -0.9 °F -12.7 °F -7.1 °F 75% 30.33 in 10.0 mi ESE 5.8 mph - N/A   Partly Cloudy
2:09 AM -0.4 °F -12.0 °F -5.8 °F 78% 30.16 in 10.0 mi ESE 5.8 mph - N/A   Mostly Cloudy
2:51 AM 1.9 °F -10.6 °F -4.0 °F 76% 30.32 in 10.0 mi ESE 6.9 mph - N/A   Mostly Cloudy
3:51 AM 3.9 °F -13.0 °F -2.0 °F 76% 30.31 in 10.0 mi SE 12.7 mph - N/A   Overcast
4:21 AM 3.2 °F -13.9 °F -2.2 °F 78% 30.15 in 10.0 mi ESE 12.7 mph - N/A   Scattered Clouds
4:51 AM 3.0 °F -14.1 °F -2.9 °F 76% 30.30 in 10.0 mi ESE 12.7 mph - N/A   Partly Cloudy
5:40 AM 1.4 °F -15.3 °F -4.0 °F 78% 30.14 in 10.0 mi ESE 11.5 mph - N/A   Mostly Cloudy
5:51 AM 1.9 °F -15.5 °F -2.9 °F 80% 30.32 in 10.0 mi ESE 12.7 mph - N/A   Overcast
6:51 AM 3.0 °F -16.1 °F -2.9 °F 76% 30.31 in 10.0 mi ESE 16.1 mph - N/A   Overcast
7:51 AM 3.0 °F -17.8 °F -2.0 °F 80% 30.32 in 10.0 mi ESE 19.6 mph - N/A   Overcast
8:51 AM 3.9 °F -15.6 °F -0.9 °F 80% 30.31 in 9.0 mi ESE 17.3 mph - N/A   Mostly Cloudy
9:51 AM 7.0 °F -13.6 °F 1.0 °F 77% 30.30 in 10.0 mi SE 21.9 mph - N/A   Mostly Cloudy
9:56 AM 6.8 °F -14.3 °F 1.4 °F 79% 30.11 in 10.0 mi SE 23.0 mph 27.6 mph N/A   Scattered Clouds
10:37 AM 10.4 °F -9.5 °F 3.2 °F 73% 30.10 in 10.0 mi SE 23.0 mph 28.8 mph N/A   Mostly Cloudy
11:14 AM 12.2 °F -7.9 °F 3.2 °F 67% 30.09 in 10.0 mi SE 25.3 mph - N/A   Scattered Clouds
11:51 AM 15.1 °F -4.4 °F 6.1 °F 68% 30.23 in 10.0 mi ESE 26.5 mph 32.2 mph N/A   Partly Cloudy
12:51 PM 17.1 °F -1.7 °F 6.1 °F 62% 30.21 in 10.0 mi SE 26.5 mph 34.5 mph N/A   Clear
1:51 PM 18.0 °F -1.1 °F 5.0 °F 57% 30.19 in 10.0 mi ESE 28.8 mph 36.8 mph N/A   Clear
2:51 PM 19.0 °F 0.6 °F 3.9 °F 52% 30.15 in 10.0 mi ESE 27.6 mph 35.7 mph N/A   Clear
3:51 PM 17.1 °F -3.2 °F 1.0 °F 50% 30.12 in 10.0 mi ESE 32.2 mph 39.1 mph N/A   Clear
5:51 PM 14.0 °F -6.8 °F -2.0 °F 49% 30.12 in 10.0 mi ESE 29.9 mph 39.1 mph N/A   Clear
6:51 PM 12.9 °F -8.0 °F -2.0 °F 51% 30.13 in 10.0 mi ESE 28.8 mph 42.6 mph N/A   Clear
7:51 PM 12.0 °F -8.8 °F -0.9 °F 56% 30.12 in 10.0 mi ESE 27.6 mph 41.4 mph N/A   Clear
8:51 PM 10.9 °F -11.6 °F -2.9 °F 54% 30.11 in 10.0 mi ESE 32.2 mph 41.4 mph N/A   Clear
9:51 PM 10.0 °F -11.9 °F -2.0 °F 58% 30.12 in 10.0 mi ESE 28.8 mph 36.8 mph N/A   Clear
10:51 PM 9.0 °F -13.3 °F -0.9 °F 64% 30.10 in 10.0 mi ESE 28.8 mph 34.5 mph N/A   Clear
11:51 PM 8.1 °F -14.9 °F -2.0 °F 64% 30.07 in 10.0 mi ESE 29.9 mph 35.7 mph N/A   Clear